Regional Weather Roundup
Issued by NWS

Home | Current Version | Previous Version | Graphics & Text | Print | Product List | Glossary Off
Versions: 1 2 3 4 5 6 7 8 9 10 11 12 13 14 15 16 17 18 19 20 21 22 23 24 25 26 27 28 29 30 31 32 33 34 35 36 37 38 39 40 41 42 43 44 45 46 47 48 49 50

000
ASUS43 KDMX 011907
RWRIA

WEATHER ROUNDUP FOR IOWA
NATIONAL WEATHER SERVICE DES MOINES IA
200 PM CDT TUE SEP 01 2015

NOTE: "FAIR" INDICATES FEW OR NO CLOUDS BELOW 12,000 FEET WITH NO
SIGNIFICANT WEATHER AND/OR OBSTRUCTIONS TO VISIBILITY.

* - THESE STATIONS ARE NOT NWS STATIONS...THUS NOT UNDER NWS
QUALITY CONTROL.  THEY ALSO DO NOT REPORT WEATHER SUCH
AS PRECIPITATION OR FOG.

IAZ001>003-012>014-020>022-031>034-043>046-012000-
   NORTHWEST IOWA

CITY           SKY/WX    TMP DP  RH WIND       PRES   REMARKS
CARROLL *      SUNNY     82  73  74 SW10      29.95S HX  88
CHEROKEE *     PTSUNNY   84  70  61 SW10G17   29.92S HX  88
DENISON *      SUNNY     82  72  69 S12       29.93S HX  87
LE MARS *      SUNNY     82  70  65 S12       29.90F HX  86
ORANGE CITY *  SUNNY     82  70  65 SW9       29.92R HX  86
SHELDON *      SUNNY     81  70  69 SW8       29.91R HX  84
SIOUX CITY     PTSUNNY   84  69  60 S9        29.90S HX  88
SPENCER        PTSUNNY   84  68  58 SW12      29.92S HX  87
STORM LAKE *   SUNNY     81  70  69 SW12G17   29.95S HX  84
$$

IAZ055>058-069>071-079>083-090>094-012000-
   SOUTHWEST IOWA

CITY           SKY/WX    TMP DP  RH WIND       PRES   REMARKS
ATLANTIC *     SUNNY     84  72  65 S10       29.96F HX  89
AUDUBON *      SUNNY     84  73  70 SW9       29.97F HX  91
CLARINDA *     SUNNY     88  72  58 S12G18    29.98S HX  94
COUNCIL BLFS * SUNNY     86  72  62 S13       29.95S HX  92
CRESTON *      SUNNY     86  72  62 S14       30.00S HX  92
LAMONI         SUNNY     88  71  57 SW13      30.01S HX  94
RED OAK *      SUNNY     84  73  70 SW12      29.96F HX  91
SHENANDOAH *   SUNNY     88  73  62 S9        29.96F HX  96
$$

IAZ047>049-059>061-072>074-084-012000-
   CENTRAL IOWA

CITY           SKY/WX    TMP DP  RH WIND       PRES   REMARKS
AMES           MOSUNNY   87  72  60 S9        29.95F HX  93
ANKENY *       SUNNY     88  72  58 SW8       29.96S HX  94
CHARITON *     SUNNY     88  72  58 SW14      29.99F HX  94
DES MOINES     PTSUNNY   88  71  57 S10       29.96S HX  94
GRINNELL*      SUNNY     86  72  62 S10       29.99S HX  92
KNOXVILLE *    SUNNY     88  72  58 SW10      29.97S HX  94
MARSHALLTOWN   MOSUNNY   86  73  65 SW13      29.97R HX  93
PELLA *        SUNNY     90  77  66 SW8       29.99S HX 102
PERRY *          N/A     86  73  66 S8        29.96S HX  93
$$

IAZ004>006-015-016-023>025-035-036-012000-
   NORTH CENTRAL IOWA

CITY           SKY/WX    TMP DP  RH WIND       PRES   REMARKS
ALGONA *       SUNNY     82  72  69 S13       29.94R HX  87
CLARION *      HAZE      84  73  70 SW13      29.95R VSB 1   HX  91
ESTHERVILLE    PTSUNNY   81  70  69 S10       29.92S HX  84
FORT DODGE *   PTSUNNY   84  70  61 SW9       29.96R HX  88
MASON CITY     PTSUNNY   85  74  69 S10       29.95S HX  92
FOREST CITY *  SUNNY     81  70  69 S12       29.94R HX  84
IOWA FALLS *     N/A     88  72  58 SW10      29.97R HX  94
$$

IAZ007>011-017>019-026>030-037>042-050>054-066-012000-
   NORTHEAST IOWA

CITY           SKY/WX    TMP DP  RH WIND       PRES   REMARKS
CEDAR RAPIDS   SUNNY     86  75  69 S13       29.98S HX  95
CHARLES CITY * SUNNY     84  77  79 S12G18    29.96R HX  94
CLINTON *      SUNNY     88  73  62 S10       30.02S HX  96
DECORAH *      SUNNY     84  73  70 S9        29.95S HX  91
DUBUQUE        MOSUNNY   85  73  67 S12       30.00S HX  91
MONTICELLO *   SUNNY     86  75  70 SW8       29.98S HX  95
OELWEIN *      SUNNY     84  75  74 S13       29.97S HX  92
WATERLOO       SUNNY     86  72  62 S14       29.95R HX  92
$$

IAZ064-065-067-068-078-012000-
   EAST CENTRAL IOWA

CITY           SKY/WX    TMP DP  RH WIND       PRES   REMARKS
DAVENPORT      SUNNY     88  72  58 SW9       30.01S HX  94
IOWA CITY      SUNNY     88  72  58 SW9       29.99F HX  94
MT. PLEASANT * SUNNY     91  64  40 SW12      30.00F HX  93
MUSCATINE *    SUNNY     93  70  46 SW13      29.99S HX  99
QUAD CITIES    SUNNY     90  72  55 S10       29.99F HX  97
$$

IAZ062-063-075>077-085>089-095>099-012000-
   SOUTHEAST IOWA

CITY           SKY/WX    TMP DP  RH WIND       PRES   REMARKS
BURLINGTON     SUNNY     90  71  53 SW9       30.01F HX  96
FAIRFIELD *    SUNNY     90  68  48 SW9G17    30.00F HX  93
FORT MADISON * SUNNY     90  72  55 S7        30.02F HX  96
KEOKUK *       SUNNY     91  70  49 SW12      30.01F HX  97
OSKALOOSA *      N/A     90  68  48 SW9       29.99F HX  93
CENTERVILLE *  SUNNY     86  72  62 SW13      30.03S HX  92
OTTUMWA        SUNNY     88  72  58 S14       29.98S HX  94
WASHINGTON *     N/A    N/A N/A N/A MISG        N/A
$$

ABBREVIATIONS USED IN REMARKS
   TC - TEMPERATURES IN CELSIUS
  WCI - WIND CHILL INDEX
   HX - HEAT INDEX
  VSB - VISIBILITY
$$




USA.gov is the U.S. government's official web portal to all federal, state and local government web resources and services.